カタログに戻る

FENGYUN 1C DEB

運用中PO
NORAD 35168·DEBRIS·🇨🇳 China

打ち上げ May 10, 1999 から Taiyuan Satellite Launch Center

Loading…

次のパス (今後24時間)

TLE

古いSource: Space-Track

元期: Sep 2, 2026, 21:21 UTC

1 35168U 99025DMY 26245.89015455  .00000258  00000-0  13961-3 0  9992
2 35168  98.2420 123.6494 0126141  82.5056 279.0430 14.15787253616618

AllMySatでFENGYUN 1C DEBをリアルタイム追跡

Download on the App Store